Location: Navalespino
(40.5894°N, 4.2660°W)
Time: 02:42:12
(UTC+00:00)

SPOT 1/Viking Rocket - Pass Details

Date: 18 April 2024
Orbit: 774 x 792 km, 98.3° (Epoch: 28 May)

Event Time Altitude Azimuth Distance (km) Brightness Sun altitude
Rises 19:18:13 0° 149° (SSE) 3,277 6.3 -4.2°
Reaches altitude 10° 19:20:35 10° 144° (SE) 2,353 5.5 -4.6°
Maximum altitude 19:25:34 48° 71° (ENE) 1,034 3.9 -5.5°
Drops below altitude 10° 19:30:34 10° 359° (N) 2,366 6.3 -6.4°
Sets 19:32:57 0° 354° (N) 3,298 7.2 -6.8°
